Погода в Зинджибаре

Йемен     13°07′48″N   45°22′47″E
темп.,
°C
ветер,
м/с
пор.,
м/с
влажн.,
%
обл.,
%
осадки,
мм/ч
давл.,
гПа
погр.,
м
15 мая, сб
сб1500:00+30в44682 0.0 1004180
03:00+30всв22745 0.0 1003136
06:00+29в33745 0.0 1004149
09:00+33в44550 0.0 1006653
12:00+36вюв54421 0.0 1004712
15:00+35юв43493 0.0 1002705
18:00+35зюз464790 0.0 10041062
21:00+34ссв3540100 0.1 1004287
16 мая, вс
вс1600:00+34вюв2347100 0.0 100383
03:00+31вюв126871 0.0 1003135
06:00+30с117095 0.0 100594
09:00+33в335580 0.0 1006693
12:00+36юв4346100 0.0 1004852
15:00+36ююв544674 0.0 1002783
18:00+34ююз225081 0.0 1003453
21:00+32юз115857 0.0 1005125
17 мая, пн
пн1700:00+33вюв225444 0.0 100321
03:00+31ююв11665 0.0 100318
06:00+30с11690 0.0 100559
09:00+35юв32470 0.0 1005514
12:00+35юв54451 0.0 1005729
15:00+36ююв324256 0.0 1003789
18:00+35ююв32494 0.0 1003301
21:00+33зюз11575 0.0 1004103
18 мая, вт
вт1800:00+33в335711 0.0 100457
03:00+30в237071 0.0 1003100
06:00+30в117130 0.0 100458
09:00+34в334978 0.0 1005448
12:00+35вюв43445 0.0 1004672
15:00+36юв434070 0.0 1002703
18:00+34ююв214486 0.0 1003383
21:00+34зюз124622 0.0 100466
19 мая, ср
ср1900:00+33юв12509 0.0 100315
03:00+31ююв11606 0.0 100213
06:00+30в226311 0.0 100449
09:00+34вюв335182 0.0 1005520
12:00+34юв5352100 0.0 1004722
15:00+37ю434314 0.0 1001887
18:00+33ю3253100 0.0 1002309
21:00+33всв1253100 0.0 100375